Sierra Vista, AZ

3:49 PM MST on March 22, 2017 (GMT -0700)
Sierra Vista Municipal-Libby Army Air Field

Weather History for KFHU - May, 2013

Change the Weather History Date:

Thursday, May 23, 2013

  Actual Average Record
Temperature  
Mean Temperature 76 °F -  
Max Temperature 89 °F 85 °F 98 °F (2005)
Min Temperature 62 °F 63 °F 46 °F (2008)
Cooling Degree Days 10    
Growing Degree Days 26 (Base 50)    
Moisture  
Dew Point 17 °F    
Average Humidity 12    
Maximum Humidity 22    
Minimum Humidity 4    
Precipitation  
Precipitation 0.00 in - - ()
Sea Level Pressure  
Sea Level Pressure 29.80 in    
Wind  
Wind Speed 11 mph (SW)    
Max Wind Speed 20 mph    
Max Gust Speed 28 mph    
Visibility 10 miles    
Events      
Averages and records for this station are not official NWS values.
T = Trace of Precipitation, MM = Missing Value Source: NWS Daily Summary

Daily Weather History Graph

Daily Weather History Graph

Search for Another Location

Airport or City:

Trip Planner

Search our weather history database for the weather conditions in past years. The results will help you decide how hot, cold, wet, or windy it might be!

Date:

Astronomy

May. 23, 2013 Rise Set
Actual Time 5:20 AM MST 7:16 PM MST
Civil Twilight 4:52 AM MST 7:43 PM MST
Nautical Twilight 4:20 AM MST 8:16 PM MST
Astronomical Twilight 3:45 AM MST 8:51 PM MST
Moon 5:57 PM MST (5/23) 4:01 AM MST (5/23)
Length of Visible Light 14h 50m
Length of Day
13h 56m
Waxing Gibbous, 97% of the Moon is Illuminated
May 23
Waxing Gibbous
May 24
Full
May 31
Last Quarter
Jun 8
New
Jun 16
First Quarter

Hourly Weather History & Observations

Time (MST) Temp. Dew Point Humidity Pressure Visibility Wind Dir Wind Speed Gust Speed Precip Events Conditions
12:55 AM 68.0 °F 17.6 °F 15% 29.75 in 10.0 mi SSW 12.7 mph - N/A   Partly Cloudy
1:11 AM 68.0 °F 17.6 °F 15% 29.95 in 10.0 mi SSW 13.8 mph - N/A   Partly Cloudy
1:55 AM 62.6 °F 17.6 °F 18% 29.76 in 10.0 mi SSW 10.4 mph - N/A   Partly Cloudy
2:55 AM 62.6 °F 17.6 °F 18% 29.76 in 10.0 mi WSW 3.5 mph - N/A   Partly Cloudy
3:55 AM 62.6 °F 19.4 °F 19% 29.76 in 10.0 mi Variable 3.5 mph - N/A   Partly Cloudy
4:55 AM 62.6 °F 21.2 °F 20% 29.78 in 10.0 mi Variable 4.6 mph - N/A   Partly Cloudy
5:55 AM 62.6 °F 23.0 °F 22% 29.80 in 10.0 mi Variable 4.6 mph - N/A   Partly Cloudy
6:55 AM 66.2 °F 23.0 °F 19% 29.81 in 10.0 mi East 4.6 mph - N/A   Partly Cloudy
7:55 AM 73.4 °F 26.6 °F 18% 29.83 in 10.0 mi NNE 5.8 mph - N/A   Partly Cloudy
8:55 AM 77.0 °F 21.2 °F 12% 29.83 in 10.0 mi East 6.9 mph - N/A   Partly Cloudy
9:55 AM 82.4 °F 10.4 °F 7% 29.82 in 10.0 mi SE 6.9 mph - N/A   Partly Cloudy
10:55 AM 84.2 °F 6.8 °F 5% 29.81 in 10.0 mi South 11.5 mph 18.4 mph N/A   Partly Cloudy
11:55 AM 86.0 °F 10.4 °F 6% 29.80 in 10.0 mi South 17.3 mph 21.9 mph N/A   Partly Cloudy
12:55 PM 89.6 °F 5.0 °F 4% 29.80 in 10.0 mi South 12.7 mph 23.0 mph N/A   Partly Cloudy
1:55 PM 89.6 °F -0.4 °F 4% 29.80 in 10.0 mi SSW 17.3 mph 27.6 mph N/A   Partly Cloudy
2:55 PM 89.6 °F 6.8 °F 4% 29.79 in 10.0 mi West 13.8 mph 25.3 mph N/A   Mostly Cloudy
3:55 PM 87.8 °F 12.2 °F 6% 29.78 in 10.0 mi SW 11.5 mph 24.2 mph N/A   Scattered Clouds
4:55 PM 87.8 °F 8.6 °F 5% 29.78 in 10.0 mi SW 13.8 mph 26.5 mph N/A   Partly Cloudy
5:55 PM 86.0 °F 10.4 °F 6% 29.79 in 10.0 mi SW 19.6 mph 25.3 mph N/A   Partly Cloudy
6:55 PM 82.4 °F 14.0 °F 8% 29.80 in 10.0 mi WSW 13.8 mph - N/A   Partly Cloudy
7:55 PM 78.8 °F 19.4 °F 11% 29.80 in 10.0 mi SW 18.4 mph - N/A   Partly Cloudy
8:55 PM 77.0 °F 24.8 °F 14% 29.80 in 10.0 mi WSW 19.6 mph 26.5 mph N/A   Clear
9:55 PM 75.2 °F 26.6 °F 17% 29.81 in 10.0 mi SW 18.4 mph 26.5 mph N/A   Clear
10:55 PM 73.4 °F 28.4 °F 19% 29.82 in 10.0 mi West 13.8 mph - N/A   Clear
11:55 PM 73.4 °F 30.2 °F 20% 29.83 in 10.0 mi SW 13.8 mph - N/A   Clear